Lid_Strength_Index
1 1 1 1 1 1 1 1 1 1 1 0 0 0 -0 -0 0 4 8 5 4 -2 2 6 6 7 6 7 7 9 12 14 13 13 11 10 10 9 9 9 9 8 8 7 7
1 1 1 1 1 1 1 0 0 1 1 1 1 0 0 0 5 8 3 -0 -2 -0 7 7 8 8 9 8 8 10 13 12 11 11 11 10 10 9 9 9 9 9 8 8 7
1 1 1 1 1 1 1 0 0 1 1 1 1 1 0 2 10 10 -1 -1 -3 1 6 7 8 8 10 9 9 11 12 12 11 11 10 10 11 9 10 10 9 9 8 9 8
1 1 1 1 1 1 0 0 0 0 1 1 1 1 0 5 13 9 -2 -2 -2 6 7 8 8 10 11 12 10 12 11 12 10 10 10 11 10 10 10 7 7 8 7 9 9
1 1 1 1 1 1 0 0 0 0 1 1 1 1 6 11 10 2 -1 -1 6 7 8 9 10 11 12 12 11 12 11 11 10 10 10 10 10 11 10 7 8 9 9 9 9
1 2 1 1 1 1 0 0 0 0 1 1 1 1 10 13 7 2 4 6 7 8 9 9 10 10 12 12 12 12 12 12 11 11 11 12 11 11 9 9 9 10 9 10 10
1 1 1 1 1 1 0 0 0 0 1 1 1 4 10 11 5 5 6 7 7 8 9 9 9 10 11 12 11 12 13 13 13 13 12 12 13 13 9 10 10 10 10 10 10
2 2 2 2 2 1 1 1 1 1 1 1 1 6 12 7 7 7 8 8 8 8 8 8 8 10 11 11 13 15 15 16 14 13 13 12 15 12 11 12 11 11 10 11 10
2 2 2 2 2 2 1 1 2 1 1 1 7 11 12 5 8 8 9 9 9 9 8 8 9 11 12 15 16 17 18 18 16 13 14 13 15 12 12 12 12 10 10 9 9
2 2 2 2 2 2 2 3 3 4 4 4 7 13 11 11 9 9 10 9 10 10 11 11 13 15 16 16 19 18 19 18 18 14 15 16 15 13 11 13 12 11 11 10 10
1 2 1 1 1 1 6 10 10 11 11 12 12 12 11 10 9 10 9 10 10 12 14 13 16 16 15 15 16 17 18 18 17 14 16 16 15 14 12 12 12 11 11 11 10
2 2 2 2 2 3 10 12 13 12 14 11 12 11 10 9 11 10 9 11 12 14 14 15 17 14 15 15 16 16 17 17 16 14 16 16 16 14 13 12 11 11 11 11 11
2 3 3 3 2 6 10 11 9 10 15 13 12 13 12 11 12 12 10 12 13 15 15 16 15 14 15 16 16 17 18 17 17 16 16 17 18 16 14 13 12 11 11 11 11
2 2 2 2 5 7 10 9 9 11 16 14 15 13 12 12 15 11 11 12 14 15 15 16 14 15 16 16 16 18 15 16 17 18 19 16 20 18 15 14 13 13 12 12 11
3 3 2 3 5 6 8 9 10 12 20 14 15 11 12 14 14 14 12 13 15 15 16 16 16 16 16 15 15 16 15 17 17 18 19 19 21 18 16 16 14 13 12 11 11
3 3 3 4 5 6 7 8 10 14 19 15 15 15 15 14 14 14 14 13 14 15 16 15 15 15 15 15 15 15 16 17 18 19 22 19 19 18 18 16 15 13 12 11 12
4 3 3 3 5 5 7 7 13 17 12 16 17 15 15 16 15 15 16 16 16 18 19 17 16 15 15 17 16 16 18 20 22 22 21 19 20 17 15 14 13 12 12 11 12
4 2 3 2 4 5 5 9 17 13 12 11 14 14 13 13 14 16 17 17 16 16 19 18 18 16 15 14 15 16 16 18 21 21 19 19 20 16 14 13 12 12 12 12 12
4 3 4 3 3 3 8 14 14 13 11 11 11 13 13 12 11 14 15 15 13 13 15 18 19 15 15 14 13 16 17 14 16 22 22 18 18 14 12 13 13 13 13 12 11
7 7 6 3 3 4 9 13 13 10 9 11 14 13 17 14 14 15 15 15 14 13 12 13 16 14 15 15 15 15 14 17 18 20 20 18 17 17 14 13 13 13 13 12 13
9 11 9 3 3 7 13 12 12 9 9 10 12 13 14 14 13 13 14 13 14 14 14 13 15 16 15 17 16 16 16 15 14 15 18 20 17 13 13 12 14 14 13 13 13
9 13 7 2 9 10 13 11 10 11 9 9 9 10 12 11 12 12 13 12 10 11 12 12 12 16 16 14 13 13 12 13 15 18 15 15 16 10 12 11 11 12 13 12 13
10 10 6 4 12 11 11 11 10 11 10 10 10 10 10 11 13 11 11 10 9 9 11 10 14 17 17 15 14 13 12 12 13 14 17 19 17 10 10 10 12 14 13 12 13
9 12 9 6 7 10 11 11 11 8 9 8 9 8 10 11 10 12 12 9 9 9 8 8 13 15 18 16 13 15 13 13 14 17 17 17 16 13 12 14 15 14 12 13 13
10 12 10 12 10 9 9 10 11 11 8 8 10 10 11 13 12 12 10 12 10 11 11 11 15 13 13 14 14 15 15 15 17 16 18 16 16 13 14 14 14 13 11 13 14
11 12 10 12 11 12 10 12 11 10 10 11 10 10 10 12 11 13 13 13 13 12 13 12 17 15 17 14 15 16 15 15 15 15 15 15 15 14 13 12 13 13 11 13 14
11 10 12 14 13 14 13 12 13 12 12 11 12 12 13 11 12 11 11 11 11 13 14 14 16 18 18 15 17 22 17 15 15 16 15 17 17 15 15 13 13 13 12 12 12